User: anonymous   Login
Location: Unspecified
(0.0000°N, 0.0000°E)
Time: 07:04:25
(UTC+00:00)
Language:

NNS O-27 - Orbit

View from above orbital plane
View from above orbital plane
View from above satellite
View from above satellite

Ground track
Ground track

The orbit data is extracted from the following two-line orbital elements,

1 18361U 87080A   19082.79102524  .00000071  00000-0  10308-3 0  9995
2 18361  90.3256 356.4573 0106408  56.1909 304.9315 13.44471730545786
Epoch (UTC): 23 March 2019 18:59:04
Eccentricity: 0.0106408
inclination: 90.3256°
perigee height: 1013 km
apogee height: 1172 km
right ascension of ascending node: 356.4573°
argument of perigee: 56.1909°
revolutions per day: 13.44471730
mean anomaly at epoch: 304.9315°
orbit number at epoch: 54578

The dashed part of the orbit path shows where the satellite is in the earth's shadow,  

DLR